Location: Unspecified
(0.0000°N, 0.0000°E)
Time: 16:36:12
(UTC+00:00)

Hubble Space Telescope - Pass Details

Date: 18 September 2020
Orbit: 536 x 540 km, 28.5° (Epoch: 18 September)

Event Time Altitude Azimuth Distance (km) Brightness Sun altitude
Exits shadow 04:12:44 54° 121° (ESE) 646 1.3 -25.3°
Drops below altitude 10° 04:16:20 10° 70° (ENE) 1,773 4.4 -24.4°
Sets 04:18:37 0° 66° (ENE) 2,662 5.5 -23.9°
